Location: Lafig�re
(44.4503°N, 4.0357°E)
Time: 15:42:26
(UTC+00:00)

Vanguard 2 Rocket - Pass Details

Date: 26 January 2021
Orbit: 554 x 3325 km, 32.9° (Epoch: 06 March)

Event Time Altitude Azimuth Distance (km) Brightness Sun altitude
Rises 18:07:25 0° 266° (W) 5,441 12.7 -14.7°
Reaches altitude 10° 18:12:12 10° 257° (WSW) 3,921 11.5 -15.6°
Maximum altitude 18:19:47 27° 205° (SSW) 2,034 9.0 -16.9°
Drops below altitude 10° 18:24:46 10° 148° (SSE) 2,504 8.9 -17.8°
Enters shadow 18:25:42 - 142° (SE) 2,755 9.1 -18.0°
Sets 18:27:09 0° 135° (SE) 3,202 - -18.2°
